Overview Statistics Trail Chart Weather Telemetry Raw packets
 

This is the latest recevied weather packets stored in our database for station/object KC9TVS-13. If no packets are shown the sender has not sent any weather packets the latest 10 day(s).

<< 6 7 8 9 10 11 12 >>
Time Temp. Humidity Pressure Rain* Wind** Luminosity Snow
1788523381 25° C 90% 1014 hPa 0 mm - 21 W/m² -
1788523079 25° C 90% 1014 hPa 0 mm - 19 W/m² -
1788522780 25° C 90% 1014.1 hPa 0 mm - 19 W/m² -
1788522480 25° C 90% 1014.1 hPa 0 mm - 18 W/m² -
1788522180 25° C 90% 1014 hPa 0 mm - 14 W/m² -
1788521879 24.44° C 90% 1014 hPa 0 mm - 11 W/m² -
1788521580 25° C 90% 1013.9 hPa 0 mm - 9 W/m² -
1788521281 25° C 90% 1014 hPa 0 mm - 0 W/m² -
1788520979 25° C 90% 1013.9 hPa 0 mm - 0 W/m² -
1788520679 25° C 90% 1013.7 hPa 0 mm - 0 W/m² -
1788520379 25° C 90% 1013.7 hPa 0 mm - 0 W/m² -
1788520079 25° C 90% 1013.7 hPa 0 mm - 0 W/m² -
1788519780 25° C 90% 1013.7 hPa 0 mm - 0 W/m² -
1788519478 25° C 90% 1013.7 hPa 0 mm - 0 W/m² -
1788519179 25° C 90% 1013.8 hPa 0 mm - 0 W/m² -
1788518878 25° C 90% 1013.7 hPa 0 mm - 0 W/m² -
1788518578 25° C 89% 1013.7 hPa 0 mm - 0 W/m² -
1788518277 25° C 89% 1013.8 hPa 0 mm - 0 W/m² -
1788517975 25° C 89% 1013.7 hPa 0 mm - 0 W/m² -
1788517674 25° C 89% 1013.6 hPa 0 mm - 0 W/m² -
1788517375 25° C 89% 1013.7 hPa 0 mm - 0 W/m² -
1788517075 25° C 89% 1013.7 hPa 0 mm - 0 W/m² -
1788516774 25° C 89% 1013.6 hPa 0 mm - 0 W/m² -
1788516474 25° C 89% 1013.5 hPa 0 mm - 0 W/m² -
1788516175 25° C 89% 1013.5 hPa 0 mm - 0 W/m² -

* Rain latest hour (hover to see other rain measurements)
** Current wind speed in m/s (hover to see current wind gust speed)